Prescott, AZ

5:21 AM MST on February 23, 2017 (GMT -0700)
Love

Weather History for KPRC - March, 2012

Change the Weather History Date:

Wednesday, March 14, 2012

  Actual Average Record
Temperature  
Mean Temperature 48 °F 46 °F  
Max Temperature 66 °F 60 °F 79 °F (2013)
Min Temperature 30 °F 33 °F 12 °F (1952)
Degree Days  
Heating Degree Days 17    
Month to date heating degree days  
Since 1 July heating degree days  
Cooling Degree Days 0    
Month to date cooling degree days  
Year to date cooling degree days  
Moisture  
Dew Point 4 °F    
Average Humidity 19    
Maximum Humidity 35    
Minimum Humidity 6    
Precipitation  
Precipitation 0.00 in 0.04 in 0.16 in (1986)
Month to date precipitation 0.56  
Year to date precipitation 3.07  
Sea Level Pressure  
Sea Level Pressure 30.02 in    
Wind  
Wind Speed 7 mph (SSW)    
Max Wind Speed 12 mph    
Max Gust Speed 22 mph    
Visibility 10 miles    
Events      
T = Trace of Precipitation, MM = Missing Value Source: NWS Daily Summary

Daily Weather History Graph

Daily Weather History Graph

Search for Another Location

Airport or City:

Trip Planner

Search our weather history database for the weather conditions in past years. The results will help you decide how hot, cold, wet, or windy it might be!

Date:

Astronomy

Mar. 14, 2012 Rise Set
Actual Time 6:40 AM MST 6:37 PM MST
Civil Twilight 6:15 AM MST 7:02 PM MST
Nautical Twilight 5:46 AM MST 7:31 PM MST
Astronomical Twilight 5:17 AM MST 8:00 PM MST
Moon 12:59 AM MST (3/14) 11:11 AM MST (3/14)
Length of Visible Light 12h 46m
Length of Day
11h 56m
Waning Gibbous, 53% of the Moon is Illuminated
Mar 14
Waning Gibbous
Mar 14
Last Quarter
Mar 22
New
Mar 30
First Quarter
Apr 6
Full

Hourly Weather History & Observations

Time (MST) Temp. Windchill Dew Point Humidity Pressure Visibility Wind Dir Wind Speed Gust Speed Precip Events Conditions
12:53 AM 35.6 °F 29.9 °F 3.2 °F 26% 30.10 in 10.0 mi SSW 6.9 mph - N/A   Clear
1:53 AM 35.1 °F 28.6 °F 3.9 °F 27% 29.97 in 10.0 mi SSW 8.1 mph - N/A   Clear
2:53 AM 34.0 °F 26.6 °F 3.0 °F 27% 29.96 in 10.0 mi SSW 9.2 mph - N/A   Clear
3:53 AM 33.1 °F 25.5 °F 8.1 °F 35% 29.96 in 10.0 mi South 9.2 mph - N/A   Clear
4:53 AM 34.0 °F 26.6 °F 3.0 °F 27% 29.97 in 10.0 mi SSW 9.2 mph - N/A   Clear
5:53 AM 30.9 °F 27.5 °F 3.9 °F 32% 30.00 in 10.0 mi SSW 3.5 mph - N/A   Clear
6:53 AM 32.0 °F 25.6 °F 7.0 °F 35% 30.02 in 10.0 mi South 6.9 mph - N/A   Clear
7:53 AM 39.9 °F 35.8 °F 8.1 °F 27% 30.03 in 10.0 mi South 5.8 mph - N/A   Clear
8:53 AM 45.0 °F 41.8 °F 3.9 °F 18% 30.06 in 10.0 mi North 5.8 mph - N/A   Clear
9:53 AM 53.1 °F - 3.9 °F 14% 30.07 in 10.0 mi NNE 3.5 mph - N/A   Clear
11:53 AM 64.0 °F - 1.9 °F 8% 30.02 in 10.0 mi Variable 4.6 mph - N/A   Clear
12:53 PM 64.9 °F - -2.0 °F 7% 30.00 in 10.0 mi SSW 6.9 mph 16.1 mph N/A   Clear
1:53 PM 66.0 °F - -2.0 °F 7% 29.98 in 10.0 mi South 11.5 mph 17.3 mph N/A   Clear
2:53 PM 66.9 °F - -2.0 °F 6% 29.97 in 10.0 mi Variable 5.8 mph 21.9 mph N/A   Clear
3:53 PM 66.9 °F - 1.0 °F 7% 29.98 in 10.0 mi SSW 10.4 mph - N/A   Clear
4:53 PM 64.9 °F - -2.0 °F 7% 29.99 in 10.0 mi SW 9.2 mph - N/A   Clear
5:53 PM 63.0 °F - 1.0 °F 8% 30.01 in 10.0 mi SW 11.5 mph - N/A   Clear
6:53 PM 55.9 °F - 3.0 °F 12% 30.04 in 10.0 mi SW 8.1 mph - N/A   Clear
7:53 PM 53.1 °F - 6.1 °F 15% 30.05 in 10.0 mi SSW 5.8 mph - N/A   Clear
8:53 PM 50.0 °F - 8.1 °F 18% 30.06 in 10.0 mi South 5.8 mph - N/A   Clear
9:53 PM 48.0 °F - 12.0 °F 24% 30.06 in 10.0 mi South 6.9 mph - N/A   Clear
10:53 PM 46.0 °F 41.9 °F 12.0 °F 25% 30.06 in 10.0 mi South 8.1 mph - N/A   Clear
11:53 PM 44.1 °F 39.0 °F 15.1 °F 31% 30.05 in 10.0 mi South 9.2 mph - N/A   Clear